BTK6284 WIII-WAAA

Flight info

Callsign BTK6284
Flight time N/A
Altitude 37000
Route CA T5 BIMAK
Aircraft B738/M-SDE2E3FGHIRWXY/LB1

Departure

Time 2026-05-05 02:22
Airport Soekarno-Hatta International Airport (WIII)

Arrival

Time N/A
Airport Sultan Hasanuddin International Airport (WAAA)
Time Latitude Longitude Altitude Speed Heading
2026-05-05 01:57 -6.12232 106.64904 37 ft 0 kts 152°
2026-05-05 02:10 -6.12231 106.64904 36 ft 1 kts 152°
2026-05-05 02:11 -6.12210 106.64892 37 ft 4 kts 152°
2026-05-05 02:11 -6.12188 106.64881 37 ft 4 kts 146°
2026-05-05 02:11 -6.12174 106.64864 35 ft 4 kts 87°
2026-05-05 02:11 -6.12181 106.64842 37 ft 2 kts 62°
2026-05-05 02:12 -6.12183 106.64837 36 ft 0 kts 62°
2026-05-05 02:14 -6.12177 106.64849 37 ft 5 kts 62°
2026-05-05 02:14 -6.12155 106.64899 35 ft 9 kts 68°
2026-05-05 02:15 -6.12131 106.64957 37 ft 9 kts 69°
2026-05-05 02:15 -6.12088 106.64998 37 ft 9 kts 12°
2026-05-05 02:15 -6.12028 106.65008 37 ft 9 kts
2026-05-05 02:15 -6.11956 106.65016 34 ft 12 kts 356°
2026-05-05 02:16 -6.11878 106.64991 36 ft 12 kts 349°
2026-05-05 02:16 -6.11823 106.65048 35 ft 15 kts 68°
2026-05-05 02:16 -6.11772 106.65175 37 ft 23 kts 68°
2026-05-05 02:16 -6.11713 106.65323 37 ft 22 kts 68°
2026-05-05 02:17 -6.11655 106.65467 34 ft 22 kts 68°
2026-05-05 02:17 -6.11600 106.65608 36 ft 21 kts 68°
2026-05-05 02:17 -6.11546 106.65742 36 ft 21 kts 68°
2026-05-05 02:17 -6.11493 106.65873 35 ft 20 kts 68°
2026-05-05 02:18 -6.11459 106.65958 36 ft 20 kts 68°
2026-05-05 02:18 -6.11410 106.66083 35 ft 19 kts 68°
2026-05-05 02:18 -6.11362 106.66204 35 ft 18 kts 68°
2026-05-05 02:18 -6.11315 106.66321 37 ft 18 kts 68°
2026-05-05 02:19 -6.11270 106.66433 37 ft 17 kts 68°
2026-05-05 02:19 -6.11227 106.66542 37 ft 16 kts 68°
2026-05-05 02:19 -6.11185 106.66647 37 ft 16 kts 68°
2026-05-05 02:19 -6.11145 106.66747 37 ft 15 kts 68°
2026-05-05 02:20 -6.11106 106.66844 34 ft 15 kts 68°
2026-05-05 02:20 -6.11069 106.66936 37 ft 14 kts 68°
2026-05-05 02:20 -6.11020 106.66977 37 ft 8 kts 355°
2026-05-05 02:20 -6.10964 106.66949 34 ft 11 kts 317°
2026-05-05 02:21 -6.10912 106.66895 34 ft 5 kts 320°
2026-05-05 02:21 -6.10908 106.66859 32 ft 6 kts 251°
2026-05-05 02:21 -6.10932 106.66796 35 ft 24 kts 249°
2026-05-05 02:21 -6.11088 106.66405 35 ft 96 kts 248°
2026-05-05 02:22 -6.11417 106.65578 35 ft 156 kts 248°
2026-05-05 02:22 -6.11847 106.64453 426 ft 177 kts 250°
2026-05-05 02:22 -6.12313 106.63252 1099 ft 189 kts 250°
2026-05-05 02:22 -6.12627 106.61981 1943 ft 192 kts 271°
2026-05-05 02:23 -6.12270 106.60642 2499 ft 206 kts 298°
2026-05-05 02:23 -6.11612 106.59320 3084 ft 218 kts 296°
2026-05-05 02:23 -6.11023 106.57834 3369 ft 244 kts 292°
2026-05-05 02:23 -6.10416 106.56102 3515 ft 278 kts 289°
2026-05-05 02:24 -6.09804 106.54234 4286 ft 283 kts 288°
2026-05-05 02:24 -6.09164 106.52364 5037 ft 289 kts 295°
2026-05-05 02:24 -6.07982 106.50735 5832 ft 292 kts 324°
2026-05-05 02:24 -6.06140 106.49974 6863 ft 280 kts 356°
2026-05-05 02:25 -6.04252 106.50103 7973 ft 265 kts 15°
2026-05-05 02:25 -6.02555 106.50714 8829 ft 265 kts 30°
2026-05-05 02:25 -6.01103 106.51921 9133 ft 283 kts 58°
2026-05-05 02:25 -6.00451 106.53829 9670 ft 291 kts 84°
2026-05-05 02:26 -6.00226 106.55848 10456 ft 293 kts 82°
2026-05-05 02:26 -5.99952 106.57866 11188 ft 296 kts 82°
2026-05-05 02:26 -5.99666 106.59919 11922 ft 299 kts 82°
2026-05-05 02:26 -5.99374 106.61996 12560 ft 305 kts 82°
2026-05-05 02:27 -5.99081 106.64092 13261 ft 307 kts 82°
2026-05-05 02:27 -5.98783 106.66219 14012 ft 309 kts 82°
2026-05-05 02:27 -5.98483 106.68368 14704 ft 311 kts 82°
2026-05-05 02:27 -5.98180 106.70534 15348 ft 315 kts 82°
2026-05-05 02:28 -5.97872 106.72729 15994 ft 318 kts 82°
2026-05-05 02:28 -5.97562 106.74940 16634 ft 321 kts 82°
2026-05-05 02:28 -5.97250 106.77178 17255 ft 324 kts 82°
2026-05-05 02:28 -5.96934 106.79431 17871 ft 327 kts 82°
2026-05-05 02:29 -5.96616 106.81708 18444 ft 331 kts 82°
2026-05-05 02:29 -5.96597 106.84054 18576 ft 341 kts 102°
2026-05-05 02:29 -5.97287 106.86373 18758 ft 357 kts 110°
2026-05-05 02:29 -5.98256 106.88729 18890 ft 372 kts 113°
2026-05-05 02:30 -5.99336 106.91145 18998 ft 387 kts 114°
2026-05-05 02:30 -6.00464 106.93650 19106 ft 399 kts 114°
2026-05-05 02:30 -6.01608 106.96227 19369 ft 407 kts 113°
2026-05-05 02:30 -6.02749 106.98840 19803 ft 409 kts 113°
2026-05-05 02:31 -6.03880 107.01466 20321 ft 409 kts 112°
2026-05-05 02:31 -6.05003 107.04097 20763 ft 411 kts 112°
2026-05-05 02:31 -6.06129 107.06745 21154 ft 414 kts 112°
2026-05-05 02:31 -6.07249 107.09384 21523 ft 416 kts 112°
2026-05-05 02:32 -6.08387 107.12067 21882 ft 418 kts 112°
2026-05-05 02:32 -6.09507 107.14704 22747 ft 400 kts 112°
2026-05-05 02:32 -6.10583 107.17241 23589 ft 394 kts 112°
2026-05-05 02:32 -6.11670 107.19803 23685 ft 405 kts 112°
2026-05-05 02:33 -6.12789 107.22437 23763 ft 415 kts 112°
2026-05-05 02:33 -6.13931 107.25131 23832 ft 424 kts 112°
2026-05-05 02:33 -6.15098 107.27881 23898 ft 432 kts 112°
2026-05-05 02:33 -6.16284 107.30680 24081 ft 437 kts 112°
2026-05-05 02:34 -6.17475 107.33494 24398 ft 437 kts 112°
2026-05-05 02:34 -6.18663 107.36302 24743 ft 437 kts 112°
2026-05-05 02:34 -6.19856 107.39121 25008 ft 440 kts 112°
2026-05-05 02:34 -6.21056 107.41959 25228 ft 442 kts 112°
2026-05-05 02:35 -6.22265 107.44817 25442 ft 445 kts 112°
2026-05-05 02:35 -6.23478 107.47688 25683 ft 447 kts 112°
2026-05-05 02:35 -6.24697 107.50570 25945 ft 449 kts 112°
2026-05-05 02:35 -6.25921 107.53463 26206 ft 450 kts 112°
2026-05-05 02:36 -6.27148 107.56367 26450 ft 452 kts 112°
2026-05-05 02:36 -6.28381 107.59285 26673 ft 454 kts 112°
2026-05-05 02:36 -6.29620 107.62219 26890 ft 456 kts 112°
2026-05-05 02:36 -6.30862 107.65161 27119 ft 458 kts 112°
2026-05-05 02:37 -6.32110 107.68112 27345 ft 460 kts 112°
2026-05-05 02:37 -6.33356 107.71063 27558 ft 461 kts 112°
2026-05-05 02:37 -6.34599 107.74004 27748 ft 464 kts 112°
2026-05-05 02:37 -6.35877 107.77032 27950 ft 465 kts 112°
2026-05-05 02:38 -6.37125 107.79990 28145 ft 466 kts 112°
2026-05-05 02:38 -6.38409 107.83037 28334 ft 468 kts 112°
2026-05-05 02:38 -6.39663 107.86013 28521 ft 470 kts 112°
2026-05-05 02:38 -6.40941 107.89042 28723 ft 471 kts 112°
2026-05-05 02:39 -6.42223 107.92083 28909 ft 473 kts 112°
2026-05-05 02:39 -6.43509 107.95134 29079 ft 475 kts 112°
2026-05-05 02:39 -6.44798 107.98192 29252 ft 476 kts 112°
2026-05-05 02:39 -6.46090 108.01257 29417 ft 477 kts 112°
2026-05-05 02:40 -6.47405 108.04329 29567 ft 479 kts 113°
2026-05-05 02:40 -6.48737 108.07399 29751 ft 480 kts 113°
2026-05-05 02:40 -6.50078 108.10475 29947 ft 480 kts 113°
2026-05-05 02:40 -6.51420 108.13549 30197 ft 480 kts 113°
2026-05-05 02:41 -6.52756 108.16619 30476 ft 478 kts 113°
2026-05-05 02:41 -6.54086 108.19679 30745 ft 477 kts 113°
2026-05-05 02:41 -6.55412 108.22735 30994 ft 477 kts 112°
2026-05-05 02:41 -6.56736 108.25791 31250 ft 476 kts 112°
2026-05-05 02:42 -6.58055 108.28837 31522 ft 475 kts 112°
2026-05-05 02:42 -6.59372 108.31877 31786 ft 474 kts 112°
2026-05-05 02:42 -6.60689 108.34918 32010 ft 474 kts 112°
2026-05-05 02:42 -6.62002 108.37953 32247 ft 473 kts 112°
2026-05-05 02:43 -6.63316 108.40990 32517 ft 473 kts 112°
2026-05-05 02:43 -6.64626 108.44018 32803 ft 472 kts 112°
2026-05-05 02:43 -6.65933 108.47037 33073 ft 471 kts 112°
2026-05-05 02:43 -6.67238 108.50058 33343 ft 470 kts 113°
2026-05-05 02:44 -6.68544 108.53079 33635 ft 470 kts 112°
2026-05-05 02:44 -6.69487 108.56199 33863 ft 466 kts 96°
2026-05-05 02:44 -6.69510 108.59413 33992 ft 466 kts 82°
2026-05-05 02:44 -6.69088 108.62640 34221 ft 465 kts 81°
2026-05-05 02:45 -6.68625 108.65865 34433 ft 465 kts 81°
2026-05-05 02:45 -6.68156 108.69081 34683 ft 465 kts 81°
2026-05-05 02:45 -6.67698 108.72288 34905 ft 463 kts 81°
2026-05-05 02:45 -6.67244 108.75504 35072 ft 465 kts 81°
2026-05-05 02:46 -6.66804 108.78726 35288 ft 465 kts 82°
2026-05-05 02:46 -6.66379 108.81941 35527 ft 463 kts 82°
2026-05-05 02:46 -6.65960 108.85153 35771 ft 462 kts 82°
2026-05-05 02:46 -6.65544 108.88356 35989 ft 462 kts 82°
2026-05-05 02:47 -6.65126 108.91561 36162 ft 462 kts 82°
2026-05-05 02:47 -6.64707 108.94771 36335 ft 463 kts 82°
2026-05-05 02:47 -6.64287 108.97979 36519 ft 463 kts 82°
2026-05-05 02:47 -6.63865 109.01185 36708 ft 463 kts 82°
2026-05-05 02:48 -6.63444 109.04388 36889 ft 462 kts 82°
2026-05-05 02:48 -6.62597 109.10820 36911 ft 464 kts 82°
2026-05-05 02:49 -6.61755 109.17186 36911 ft 460 kts 82°
2026-05-05 02:49 -6.60915 109.23533 36925 ft 456 kts 82°
2026-05-05 02:50 -6.60081 109.29841 36907 ft 453 kts 82°
2026-05-05 02:50 -6.59248 109.36112 36923 ft 451 kts 82°
2026-05-05 02:51 -6.58423 109.42354 36916 ft 450 kts 82°
2026-05-05 02:51 -6.57597 109.48590 36908 ft 450 kts 82°
2026-05-05 02:52 -6.56769 109.54830 36921 ft 450 kts 82°
2026-05-05 02:52 -6.55939 109.61082 36916 ft 452 kts 82°
2026-05-05 02:53 -6.55104 109.67341 36904 ft 450 kts 82°
2026-05-05 02:53 -6.54260 109.73480 36906 ft 436 kts 82°
2026-05-05 02:54 -6.53458 109.79436 36905 ft 423 kts 82°
2026-05-05 02:54 -6.53077 109.82335 36886 ft 412 kts 83°
2026-05-05 02:54 -6.52710 109.85119 36910 ft 405 kts 82°
2026-05-05 02:55 -6.51951 109.90673 36904 ft 397 kts 82°
2026-05-05 02:55 -6.51224 109.96112 36897 ft 384 kts 82°
2026-05-05 02:56 -6.50533 110.01361 36866 ft 379 kts 83°
2026-05-05 02:56 -6.49863 110.06637 36922 ft 383 kts 82°
2026-05-05 02:57 -6.49147 110.12008 36933 ft 392 kts 82°
2026-05-05 02:57 -6.48408 110.17512 36935 ft 402 kts 82°
2026-05-05 02:58 -6.47651 110.23142 36931 ft 411 kts 82°
2026-05-05 02:58 -6.46878 110.28898 36929 ft 420 kts 82°
2026-05-05 02:59 -6.46089 110.34776 36915 ft 428 kts 82°
2026-05-05 02:59 -6.45285 110.40765 36911 ft 436 kts 82°
2026-05-05 03:00 -6.44479 110.46863 36928 ft 444 kts 82°
2026-05-05 03:00 -6.43662 110.53060 36927 ft 451 kts 82°
2026-05-05 03:01 -6.42834 110.59323 36923 ft 458 kts 82°
2026-05-05 03:01 -6.41985 110.65734 36924 ft 462 kts 82°
2026-05-05 03:02 -6.41136 110.72143 36902 ft 461 kts 82°
2026-05-05 03:02 -6.40297 110.78473 36909 ft 453 kts 82°
2026-05-05 03:03 -6.39468 110.84706 36919 ft 452 kts 82°
2026-05-05 03:03 -6.38634 110.90973 36922 ft 452 kts 82°
2026-05-05 03:04 -6.37800 110.97236 36906 ft 452 kts 82°
2026-05-05 03:04 -6.37100 111.02491 36916 ft 453 kts 82°
2026-05-05 03:05 -6.36128 111.09789 36923 ft 454 kts 82°
2026-05-05 03:05 -6.35427 111.15061 36922 ft 454 kts 82°
2026-05-05 03:06 -6.34456 111.22382 36916 ft 452 kts 81°
2026-05-05 03:06 -6.33660 111.27475 36961 ft 438 kts 81°
2026-05-05 03:06 -6.33179 111.30437 37364 ft 423 kts 77°
2026-05-05 03:07 -6.32589 111.33291 37560 ft 411 kts 78°
2026-05-05 03:07 -6.32098 111.36071 37702 ft 402 kts 81°
2026-05-05 03:07 -6.31761 111.38835 37308 ft 407 kts 83°
2026-05-05 03:07 -6.31317 111.41685 36752 ft 416 kts 79°
2026-05-05 03:08 -6.30776 111.44528 36794 ft 408 kts 78°
2026-05-05 03:08 -6.29110 111.49910 36076 ft 415 kts 62°
2026-05-05 03:08 -6.27792 111.52623 34761 ft 446 kts 74°
2026-05-05 03:09 -6.27570 111.55682 34598 ft 443 kts 99°
2026-05-05 03:09 -6.28740 111.61814 34739 ft 451 kts 94°
2026-05-05 03:09 -6.28785 111.64976 34852 ft 453 kts 86°
2026-05-05 03:10 -6.28512 111.68137 35007 ft 455 kts 83°
2026-05-05 03:10 -6.28075 111.71295 35204 ft 456 kts 81°
2026-05-05 03:10 -6.27595 111.74442 35430 ft 456 kts 81°
2026-05-05 03:10 -6.27140 111.77595 35648 ft 456 kts 82°
2026-05-05 03:11 -6.26709 111.80756 35844 ft 456 kts 82°
2026-05-05 03:11 -6.26287 111.83920 36014 ft 457 kts 82°
2026-05-05 03:11 -6.25859 111.87089 36182 ft 458 kts 82°
2026-05-05 03:11 -6.25427 111.90266 36329 ft 460 kts 82°
2026-05-05 03:12 -6.24994 111.93449 36499 ft 460 kts 82°
2026-05-05 03:12 -6.24561 111.96639 36656 ft 461 kts 82°
2026-05-05 03:12 -6.24125 111.99831 36814 ft 461 kts 82°
2026-05-05 03:13 -6.23251 112.06227 36904 ft 464 kts 82°
2026-05-05 03:13 -6.22379 112.12620 36899 ft 458 kts 82°
2026-05-05 03:14 -6.21518 112.18927 36901 ft 454 kts 82°
2026-05-05 03:14 -6.20663 112.25179 36916 ft 450 kts 82°
2026-05-05 03:15 -6.19811 112.31397 36915 ft 448 kts 82°
2026-05-05 03:15 -6.18967 112.37562 36910 ft 448 kts 82°
2026-05-05 03:16 -6.18118 112.43769 36907 ft 449 kts 82°
2026-05-05 03:16 -6.17263 112.50001 36915 ft 452 kts 82°
2026-05-05 03:17 -6.16401 112.56287 36923 ft 455 kts 82°
2026-05-05 03:17 -6.15531 112.62612 36914 ft 459 kts 82°
2026-05-05 03:18 -6.14652 112.68988 36917 ft 462 kts 82°
2026-05-05 03:18 -6.13770 112.75388 36910 ft 463 kts 82°
2026-05-05 03:19 -6.12448 112.84996 36900 ft 462 kts 82°
2026-05-05 03:19 -6.11567 112.91382 36894 ft 460 kts 82°
2026-05-05 03:20 -6.10689 112.97740 36901 ft 458 kts 82°
2026-05-05 03:20 -6.09812 113.04069 36901 ft 457 kts 82°
2026-05-05 03:21 -6.08941 113.10378 36912 ft 456 kts 82°
2026-05-05 03:21 -6.08070 113.16674 36909 ft 454 kts 82°
2026-05-05 03:22 -6.07197 113.22959 36906 ft 454 kts 82°
2026-05-05 03:22 -6.06327 113.29232 36899 ft 453 kts 82°
2026-05-05 03:23 -6.05463 113.35470 36900 ft 454 kts 82°
2026-05-05 03:23 -6.04586 113.41756 36903 ft 455 kts 82°
2026-05-05 03:24 -6.03713 113.48052 36904 ft 455 kts 82°
2026-05-05 03:24 -6.02839 113.54352 36915 ft 456 kts 82°
2026-05-05 03:25 -6.01958 113.60670 36913 ft 457 kts 82°
2026-05-05 03:25 -6.01075 113.66990 36911 ft 457 kts 82°
2026-05-05 03:26 -6.00193 113.73313 36903 ft 457 kts 82°
2026-05-05 03:26 -5.99310 113.79642 36910 ft 458 kts 82°
2026-05-05 03:27 -5.98426 113.85972 36906 ft 457 kts 82°
2026-05-05 03:27 -5.97544 113.92288 36902 ft 456 kts 82°
2026-05-05 03:28 -5.96662 113.98591 36909 ft 455 kts 82°
2026-05-05 03:28 -5.95779 114.04887 36912 ft 455 kts 82°
2026-05-05 03:29 -5.94895 114.11181 36906 ft 455 kts 82°
2026-05-05 03:29 -5.94020 114.17420 36901 ft 454 kts 82°
2026-05-05 03:30 -5.93134 114.23704 36907 ft 453 kts 82°
2026-05-05 03:30 -5.92258 114.29981 36913 ft 453 kts 82°
2026-05-05 03:31 -5.91374 114.36252 36918 ft 454 kts 82°
2026-05-05 03:31 -5.90486 114.42530 36907 ft 454 kts 82°
2026-05-05 03:32 -5.89600 114.48807 36903 ft 454 kts 82°
2026-05-05 03:32 -5.88714 114.55082 36908 ft 454 kts 82°
2026-05-05 03:33 -5.87828 114.61360 36912 ft 454 kts 82°
2026-05-05 03:33 -5.86941 114.67646 36897 ft 454 kts 82°
2026-05-05 03:34 -5.86054 114.73924 36901 ft 454 kts 82°
2026-05-05 03:34 -5.85163 114.80209 36900 ft 454 kts 82°
2026-05-05 03:35 -5.84272 114.86490 36892 ft 454 kts 82°
2026-05-05 03:35 -5.83379 114.92768 36896 ft 454 kts 82°
2026-05-05 03:36 -5.82489 114.99045 36891 ft 455 kts 82°
2026-05-05 03:36 -5.81595 115.05332 36897 ft 454 kts 82°
2026-05-05 03:37 -5.80703 115.11605 36893 ft 454 kts 82°
2026-05-05 03:37 -5.79818 115.17837 36895 ft 454 kts 82°
2026-05-05 03:38 -5.78926 115.24112 36894 ft 454 kts 82°
2026-05-05 03:38 -5.78034 115.30379 36901 ft 454 kts 82°
2026-05-05 03:39 -5.77139 115.36656 36907 ft 454 kts 82°
2026-05-05 03:39 -5.76246 115.42922 36908 ft 454 kts 82°
2026-05-05 03:40 -5.75346 115.49201 36915 ft 454 kts 82°
2026-05-05 03:40 -5.74448 115.55485 36912 ft 454 kts 82°
2026-05-05 03:41 -5.73548 115.61771 36902 ft 456 kts 82°
2026-05-05 03:41 -5.72649 115.68037 36885 ft 443 kts 82°
2026-05-05 03:42 -5.71770 115.74021 36888 ft 424 kts 82°
2026-05-05 03:42 -5.71362 115.76904 36886 ft 412 kts 83°
2026-05-05 03:42 -5.70964 115.79749 36914 ft 413 kts 83°
2026-05-05 03:43 -5.70149 115.85496 36923 ft 423 kts 82°
2026-05-05 03:43 -5.69303 115.91405 36922 ft 432 kts 82°
2026-05-05 03:44 -5.68435 115.97473 36920 ft 442 kts 82°
2026-05-05 03:44 -5.67547 116.03600 36923 ft 450 kts 82°
2026-05-05 03:45 -5.66636 116.09917 36910 ft 458 kts 82°
2026-05-05 03:45 -5.65730 116.16229 36910 ft 461 kts 82°
2026-05-05 03:46 -5.64810 116.22603 36910 ft 462 kts 82°
2026-05-05 03:46 -5.63888 116.28991 36899 ft 462 kts 82°
2026-05-05 03:47 -5.62967 116.35373 36907 ft 461 kts 82°
2026-05-05 03:47 -5.62049 116.41726 36906 ft 459 kts 82°
2026-05-05 03:48 -5.61134 116.48061 36895 ft 457 kts 82°
2026-05-05 03:48 -5.60222 116.54357 36906 ft 454 kts 82°
2026-05-05 03:49 -5.59318 116.60617 36898 ft 453 kts 82°
2026-05-05 03:49 -5.58565 116.65807 36901 ft 451 kts 82°
2026-05-05 03:50 -5.57661 116.72032 36910 ft 450 kts 82°
2026-05-05 03:50 -5.56759 116.78241 36902 ft 449 kts 82°
2026-05-05 03:51 -5.55857 116.84454 36910 ft 450 kts 82°
2026-05-05 03:51 -5.54953 116.90673 36907 ft 451 kts 82°
2026-05-05 03:52 -5.54047 116.96912 36914 ft 452 kts 82°
2026-05-05 03:52 -5.53137 117.03165 36916 ft 454 kts 82°
2026-05-05 03:53 -5.52328 117.09452 36913 ft 454 kts 86°
2026-05-05 03:53 -5.51966 117.15786 36916 ft 456 kts 88°
2026-05-05 03:54 -5.51679 117.22148 36911 ft 457 kts 88°
2026-05-05 03:54 -5.51346 117.28436 36894 ft 446 kts 88°
2026-05-05 03:55 -5.51001 117.34671 36913 ft 449 kts 88°
2026-05-05 03:55 -5.50639 117.40940 36920 ft 452 kts 87°
2026-05-05 03:56 -5.50272 117.47224 36921 ft 455 kts 87°
2026-05-05 03:56 -5.49902 117.53585 36915 ft 458 kts 88°
2026-05-05 03:57 -5.49529 117.59974 36900 ft 459 kts 87°
2026-05-05 03:57 -5.49152 117.66345 36902 ft 459 kts 88°
2026-05-05 03:58 -5.48784 117.72729 36901 ft 458 kts 88°
2026-05-05 03:58 -5.48413 117.79097 36911 ft 456 kts 87°
2026-05-05 03:59 -5.48043 117.85442 36907 ft 454 kts 87°
2026-05-05 03:59 -5.47671 117.91773 36913 ft 454 kts 87°
2026-05-05 04:00 -5.47296 117.98089 36900 ft 453 kts 88°
2026-05-05 04:00 -5.46922 118.04392 36910 ft 452 kts 88°
2026-05-05 04:01 -5.46556 118.10610 36913 ft 451 kts 88°
2026-05-05 04:01 -5.46371 118.13738 36761 ft 454 kts 88°
2026-05-05 04:01 -5.46195 118.16711 36276 ft 456 kts 88°
2026-05-05 04:02 -5.46010 118.19859 35698 ft 454 kts 88°
2026-05-05 04:02 -5.45821 118.23011 35058 ft 455 kts 87°
2026-05-05 04:02 -5.45633 118.26186 34400 ft 455 kts 88°
2026-05-05 04:02 -5.45445 118.29355 33774 ft 454 kts 87°
2026-05-05 04:03 -5.45257 118.32509 33316 ft 450 kts 87°
2026-05-05 04:03 -5.45070 118.35625 32833 ft 446 kts 88°
2026-05-05 04:03 -5.44885 118.38720 32352 ft 442 kts 88°
2026-05-05 04:03 -5.44702 118.41791 31888 ft 439 kts 88°
2026-05-05 04:04 -5.44521 118.44831 31428 ft 434 kts 88°
2026-05-05 04:04 -5.44341 118.47842 30964 ft 431 kts 88°
2026-05-05 04:04 -5.44162 118.50831 30504 ft 427 kts 88°
2026-05-05 04:04 -5.43984 118.53795 30050 ft 423 kts 88°
2026-05-05 04:05 -5.43810 118.56727 29599 ft 420 kts 88°
2026-05-05 04:05 -5.43635 118.59639 29138 ft 416 kts 88°
2026-05-05 04:05 -5.43462 118.62526 28672 ft 413 kts 88°
2026-05-05 04:05 -5.43290 118.65387 28211 ft 409 kts 88°
2026-05-05 04:06 -5.43121 118.68225 27750 ft 406 kts 88°
2026-05-05 04:06 -5.42951 118.71046 27292 ft 403 kts 87°
2026-05-05 04:06 -5.42648 118.73831 26809 ft 402 kts 76°
2026-05-05 04:06 -5.41550 118.76392 26388 ft 400 kts 59°
2026-05-05 04:07 -5.39833 118.78581 25952 ft 398 kts 49°
2026-05-05 04:07 -5.37949 118.80605 25508 ft 396 kts 47°
2026-05-05 04:07 -5.36072 118.82568 25064 ft 393 kts 47°
2026-05-05 04:07 -5.34185 118.84541 24619 ft 391 kts 47°
2026-05-05 04:08 -5.32315 118.86513 24177 ft 388 kts 47°
2026-05-05 04:08 -5.30472 118.88475 23742 ft 386 kts 48°
2026-05-05 04:08 -5.28642 118.90435 23302 ft 384 kts 47°
2026-05-05 04:08 -5.26826 118.92388 22867 ft 381 kts 48°
2026-05-05 04:09 -5.25026 118.94325 22436 ft 379 kts 48°
2026-05-05 04:09 -5.23235 118.96256 22004 ft 377 kts 47°
2026-05-05 04:09 -5.21452 118.98177 21570 ft 375 kts 47°
2026-05-05 04:09 -5.19670 119.00096 21065 ft 375 kts 47°
2026-05-05 04:10 -5.17897 119.02006 20624 ft 373 kts 47°
2026-05-05 04:10 -5.16137 119.03898 20205 ft 370 kts 47°
2026-05-05 04:10 -5.14246 119.05636 19780 ft 368 kts 37°
2026-05-05 04:10 -5.12080 119.06982 19368 ft 366 kts 27°
2026-05-05 04:11 -5.09729 119.07930 18946 ft 364 kts 19°
2026-05-05 04:11 -5.07329 119.08706 18535 ft 361 kts 18°
2026-05-05 04:11 -5.04940 119.09461 18123 ft 359 kts 18°
2026-05-05 04:11 -5.02572 119.10225 17711 ft 356 kts 18°
2026-05-05 04:12 -5.00224 119.10999 17299 ft 354 kts 19°
2026-05-05 04:12 -4.97894 119.11772 16891 ft 352 kts 19°
2026-05-05 04:12 -4.95576 119.12543 16512 ft 349 kts 19°
2026-05-05 04:12 -4.93286 119.13302 16133 ft 345 kts 19°